This demonstration page uses our WeatherBlox Daily Observations layout. Learn more.

Left ArrowRight Arrow

38.88101, -77.10428

Hourly Observations for January 17, 2017

Temp ( °F °C ) Dew Point ( °F °C ) Humidity (%) Winds ( mph kmh ) Pressure ( in mb ) Visibility ( mi km ) Precip ( " mm )
12:52 am 00:52 Cloudy with Light Rain 41 5 39 3.9 93 93 SSW 6 9 30.28 1025 10 16 0.02 0.51
1:00 am 01:00 Cloudy with Light Rain 41 5 39 4 93 93 S 5 7 30.27 1025 10 16 N/A
1:52 am 01:52 Cloudy 41 5 39 3.9 93 93 SSW 3 6 30.27 1025 10 16 0.01 0.25
2:14 am 02:14 Cloudy 41 5 39 4 93 93 S 3 6 30.27 1025 10 16 N/A
2:52 am 02:52 Cloudy 41 5 39 3.9 93 93 SE 3 6 30.25 1025 10 16 N/A
3:52 am 03:52 Cloudy 41 5 39 3.9 93 93 N N/A 30.24 1024 10 16 N/A
4:52 am 04:52 Cloudy with Light Rain 41 5 39 3.9 93 93 S 3 6 30.22 1023 10 16 0.00 0.00
5:52 am 05:52 Cloudy 41 5 39 3.9 93 93 N N/A 30.20 1023 10 16 0.00 0.00
6:40 am 06:40 Cloudy 43 6 39 4 87 87 N N/A 30.21 1023 10 16 N/A
6:52 am 06:52 Cloudy 42 5.6 40 4.4 92 92 N N/A 30.20 1023 10 16 N/A
7:52 am 07:52 Cloudy 42 5.6 40 4.4 92 92 S 3 6 30.20 1023 10 16 N/A
8:33 am 08:33 Cloudy 43 6.1 41 5 93 93 S 3 6 30.21 1023 10 16 N/A
8:52 am 08:52 Cloudy 43 6.1 41 5 93 93 S 5 7 30.21 1023 10 16 N/A
9:52 am 09:52 Cloudy with Light Rain 43 6.1 41 5 93 93 S 7 11 30.21 1023 6 10 0.02 0.51
10:18 am 10:18 Cloudy with Light Rain 43 6 41 5 93 93 S 5 7 30.18 1022 6 10 N/A
10:52 am 10:52 Cloudy with Light Rain 44 6.7 43 6.1 96 96 S 7 11 30.16 1021 4 6 0.04 1.02
10:55 am 10:55 Cloudy with Light Rain 44 6.7 43 6.1 96 96 SSE 7 11 30.15 1021 5 8 0.00 0.00
11:52 am 11:52 Cloudy with Mist and Fog 47 8.3 45 7.2 93 93 S 9 15 30.10 1019 6 10 0.00 0.00
12:52 pm 12:52 Cloudy with Light Rain 47 8.3 45 7.2 93 93 SSW 14 22 30.09 1019 6 10 0.00 0.00
1:52 pm 13:52 Cloudy with Mist and Fog 47 8.3 45 7.2 93 93 S 7 11 30.05 1018 5 8 0.02 0.51
2:22 pm 14:22 Cloudy with Rain 46 8 46 8 100 100 S 5 7 30.06 1018 3 4 N/A
2:33 pm 14:33 Cloudy with Light Rain 47 8.3 47 8.3 100 100 N N/A 30.03 1017 3 5 0.03 0.76
2:52 pm 14:52 Cloudy with Light Rain 46 7.8 45 7.2 96 96 S 8 13 30.03 1017 2 3 0.07 1.78
2:59 pm 14:59 Cloudy with Light Rain 46 7.8 46 7.8 100 100 S 6 9 30.03 1017 3 5 0.00 0.00
3:13 pm 15:13 Cloudy with Rain 47 8.3 47 8.3 100 100 S 9 15 30.03 1017 3 5 0.01 0.25
3:18 pm 15:18 Cloudy with Light Rain 46 8 46 8 100 100 S 8 13 30.03 1017 3 4 N/A
3:26 pm 15:26 Cloudy with Light Rain 46 8 46 8 100 100 S 7 11 30.00 1016 3 5 N/A
3:39 pm 15:39 Cloudy with Light Rain 48 8.9 47 8.3 96 96 S 8 13 30.00 1016 4 6 0.03 0.76
3:52 pm 15:52 Cloudy with Mist and Fog 48 8.9 48 8.9 100 100 S 7 11 30.00 1016 6 10 0.03 0.76
3:57 pm 15:57 Cloudy with Mist and Fog 48 8.9 48 8.9 100 100 S 7 11 30.00 1016 6 10 N/A
4:26 pm 16:26 Cloudy with Mist and Fog 49 9.4 48 8.9 97 97 S 6 9 30.00 1016 6 10 N/A
4:52 pm 16:52 Cloudy with Mist and Fog 49 9.4 48 8.9 97 97 S 7 11 29.99 1016 5 8 N/A
4:57 pm 16:57 Cloudy with Mist and Fog 49 9.4 49 9.4 100 100 S 6 9 30.00 1016 5 8 N/A
5:06 pm 17:06 Cloudy with Mist and Fog 50 10 48 9 94 94 S 6 9 30.00 1016 5 8 N/A
5:52 pm 17:52 Cloudy with Mist and Fog 50 10 49 9.4 96 96 S 6 9 29.97 1015 6 10 N/A
6:13 pm 18:13 Cloudy with Mist and Fog 48 8.9 48 8.9 100 100 S 8 13 29.97 1015 3 5 N/A
6:52 pm 18:52 Cloudy with Mist and Fog 51 10.6 51 10.6 100 100 S 3 6 29.96 1015 6 10 N/A
7:41 pm 19:41 Cloudy with Mist and Fog 50 10 49 9.4 96 96 N N/A 29.97 1015 5 8 N/A
7:52 pm 19:52 Cloudy with Drizzle 49 9.4 48 8.9 97 97 NNE 5 7 29.96 1015 3 5 0.00 0.00
7:57 pm 19:57 Cloudy with Drizzle 49 9.4 48 8.9 97 97 NE 3 6 29.97 1015 2 3 0.00 0.00
7:59 pm 19:59 Cloudy with Drizzle 49 9.4 48 8.9 97 97 NE 3 6 29.97 1015 3 5 0.00 0.00
8:52 pm 20:52 Cloudy with Mist and Fog 50 10 50 10 100 100 N N/A 29.94 1014 4 6 0.00 0.00
9:33 pm 21:33 Mostly Clear with Mist and Fog 51 10.6 51 10.6 100 100 S 7 11 29.91 1013 3 5 N/A
9:48 pm 21:48 Mostly Cloudy with Mist and Fog 52 11 52 11 100 100 S 5 7 29.91 1013 5 8 N/A
9:52 pm 21:52 Mostly Cloudy with Mist and Fog 51 10.6 51 10.6 100 100 S 3 6 29.92 1013 4 6 N/A
10:06 pm 22:06 Mostly Cloudy with Mist and Fog 46 8 46 8 100 100 N 5 7 29.91 1013 5 8 N/A
10:19 pm 22:19 Mostly Cloudy with Mist and Fog 48 8.9 48 8.9 100 100 N N/A 29.91 1013 5 8 N/A
10:32 pm 22:32 Cloudy with Mist and Fog 46 8 46 8 100 100 NNE 5 7 29.91 1013 5 8 N/A
10:38 pm 22:38 Cloudy with Mist and Fog 46 8 46 8 100 100 NE 7 11 29.91 1013 5 8 N/A
10:40 pm 22:40 Cloudy with Mist and Fog 48 9 48 9 100 100 NE 8 13 29.91 1013 5 8 N/A
10:43 pm 22:43 Cloudy with Mist and Fog 48 8.9 48 8.9 100 100 NE 8 13 29.91 1013 5 8 N/A
10:52 pm 22:52 Cloudy with Mist and Fog 47 8.3 47 8.3 100 100 ENE 9 15 29.91 1013 3 5 N/A
11:32 pm 23:32 Mostly Clear with Mist and Fog 46 8 46 8 100 100 NNE 5 7 29.91 1013 2 2 N/A
11:39 pm 23:39 Mostly Clear with Mist and Fog 46 7.8 46 7.8 100 100 NNE 5 7 29.91 1013 1 1 N/A
11:47 pm 23:47 Mostly Cloudy with Fog 46 8 46 8 100 100 N 5 7 29.88 1012 0 0 N/A
11:52 pm 23:52 Mostly Cloudy with Fog 46 7.8 46 7.8 100 100 N 3 6 29.88 1012 1 2 N/A

Powered by AerisWeather